owner,sensor,date,latitude,longitude,vertical_datum,wind_speed,wind_to_direction,wind_speed_of_gust,qcFlag 
LOOP,urn:ioos:station:wmo:lopl1:1,2014-11-01T00:03:00Z,28.8850,-90.0250,10.0,12.0,336.0,15.5,'11111222,11111222,11111222' 
LOOP,urn:ioos:station:wmo:lopl1:1,2014-11-01T00:18:00Z,28.8850,-90.0250,10.0,11.8,349.0,15.6,'11111222,11111222,11111222' 
LOOP,urn:ioos:station:wmo:lopl1:1,2014-11-01T00:33:00Z,28.8850,-90.0250,10.0,12.7,345.0,16.8,'11111222,11111222,11111222' 
LOOP,urn:ioos:station:wmo:lopl1:1,2014-11-01T00:48:00Z,28.8850,-90.0250,10.0,13.5,345.0,17.6,'11111222,11111222,11111222' 
LOOP,urn:ioos:station:wmo:lopl1:1,2014-11-01T01:03:00Z,28.8850,-90.0250,10.0,12.3,343.0,15.1,'11111222,11111222,11111222' 
LOOP,urn:ioos:station:wmo:lopl1:1,2014-11-01T01:18:00Z,28.8850,-90.0250,10.0,12.3,346.0,16.8,'11111222,11111222,11111222' 
LOOP,urn:ioos:station:wmo:lopl1:1,2014-11-01T01:33:00Z,28.8850,-90.0250,10.0,13.5,344.0,18.8,'11111222,11111222,11111222' 
LOOP,urn:ioos:station:wmo:lopl1:1,2014-11-01T01:48:00Z,28.8850,-90.0250,10.0,13.2,341.0,16.6,'11111222,11111222,11111222' 
LOOP,urn:ioos:station:wmo:lopl1:1,2014-11-01T02:03:00Z,28.8850,-90.0250,10.0,12.2,338.0,14.6,'11111222,11111222,11111222' 
LOOP,urn:ioos:station:wmo:lopl1:1,2014-11-01T02:18:00Z,28.8850,-90.0250,10.0,13.9,348.0,18.6,'11111222,11111222,11111222' 
LOOP,urn:ioos:station:wmo:lopl1:1,2014-11-01T02:33:00Z,28.8850,-90.0250,10.0,15.3,352.0,20.9,'11111222,11111222,11111222' 
LOOP,urn:ioos:station:wmo:lopl1:1,2014-11-01T02:48:00Z,28.8850,-90.0250,10.0,17.1,358.0,21.4,'11111222,11111222,11111222' 
LOOP,urn:ioos:station:wmo:lopl1:1,2014-11-01T03:03:00Z,28.8850,-90.0250,10.0,17.2,352.0,20.8,'11111222,11111222,11111222' 
LOOP,urn:ioos:station:wmo:lopl1:1,2014-11-01T03:18:00Z,28.8850,-90.0250,10.0,18.0,352.0,21.6,'11111222,11111222,11111222' 
LOOP,urn:ioos:station:wmo:lopl1:1,2014-11-01T03:33:00Z,28.8850,-90.0250,10.0,14.8,354.0,19.6,'11111222,11111222,11111222' 
LOOP,urn:ioos:station:wmo:lopl1:1,2014-11-01T03:48:00Z,28.8850,-90.0250,10.0,17.2,2.0,21.7,'11111222,11111222,11111222' 
LOOP,urn:ioos:station:wmo:lopl1:1,2014-11-01T04:03:00Z,28.8850,-90.0250,10.0,16.8,354.0,20.2,'11111222,11111222,11111222' 
LOOP,urn:ioos:station:wmo:lopl1:1,2014-11-01T04:18:00Z,28.8850,-90.0250,10.0,17.3,355.0,21.2,'11111222,11111222,11111222' 
LOOP,urn:ioos:station:wmo:lopl1:1,2014-11-01T04:33:00Z,28.8850,-90.0250,10.0,17.0,356.0,21.3,'11111222,11111222,11111222' 
LOOP,urn:ioos:station:wmo:lopl1:1,2014-11-01T04:48:00Z,28.8850,-90.0250,10.0,18.3,13.0,21.5,'11111222,11111222,11111222' 
LOOP,urn:ioos:station:wmo:lopl1:1,2014-11-01T05:03:00Z,28.8850,-90.0250,10.0,17.2,4.0,20.7,'11111222,11111222,11111222' 
LOOP,urn:ioos:station:wmo:lopl1:1,2014-11-01T05:18:00Z,28.8850,-90.0250,10.0,18.8,9.0,22.2,'11111222,11111222,11111222' 
LOOP,urn:ioos:station:wmo:lopl1:1,2014-11-01T05:33:00Z,28.8850,-90.0250,10.0,19.0,8.0,22.0,'11111222,11111222,11111222' 
LOOP,urn:ioos:station:wmo:lopl1:1,2014-11-01T05:48:00Z,28.8850,-90.0250,10.0,18.9,0.0,23.0,'11111222,11111222,11111222' 
LOOP,urn:ioos:station:wmo:lopl1:1,2014-11-01T06:03:00Z,28.8850,-90.0250,10.0,18.6,6.0,20.9,'11111222,11111222,11111222' 
LOOP,urn:ioos:station:wmo:lopl1:1,2014-11-01T06:18:00Z,28.8850,-90.0250,10.0,17.5,4.0,21.8,'11111222,11111222,11111222' 
LOOP,urn:ioos:station:wmo:lopl1:1,2014-11-01T06:33:00Z,28.8850,-90.0250,10.0,17.7,349.0,20.6,'11111222,11111222,11111222' 
LOOP,urn:ioos:station:wmo:lopl1:1,2014-11-01T06:48:00Z,28.8850,-90.0250,10.0,17.2,354.0,20.9,'11111222,11111222,11111222' 
LOOP,urn:ioos:station:wmo:lopl1:1,2014-11-01T07:03:00Z,28.8850,-90.0250,10.0,18.5,4.0,22.0,'11111222,11111222,11111222' 
LOOP,urn:ioos:station:wmo:lopl1:1,2014-11-01T07:18:00Z,28.8850,-90.0250,10.0,17.9,3.0,23.4,'11111222,11111222,11111222' 
LOOP,urn:ioos:station:wmo:lopl1:1,2014-11-01T07:33:00Z,28.8850,-90.0250,10.0,18.2,14.0,22.8,'11111222,11111222,11111222' 
LOOP,urn:ioos:station:wmo:lopl1:1,2014-11-01T07:48:00Z,28.8850,-90.0250,10.0,19.0,13.0,22.5,'11111222,11111222,11111222' 
LOOP,urn:ioos:station:wmo:lopl1:1,2014-11-01T08:03:00Z,28.8850,-90.0250,10.0,17.8,7.0,22.1,'11111222,11111222,11111222' 
LOOP,urn:ioos:station:wmo:lopl1:1,2014-11-01T08:18:00Z,28.8850,-90.0250,10.0,20.2,9.0,23.3,'11111222,11111222,11111222' 
LOOP,urn:ioos:station:wmo:lopl1:1,2014-11-01T08:33:00Z,28.8850,-90.0250,10.0,19.8,4.0,24.0,'11111222,11111222,11111222' 
LOOP,urn:ioos:station:wmo:lopl1:1,2014-11-01T08:48:00Z,28.8850,-90.0250,10.0,17.7,4.0,21.5,'11111222,11111222,11111222' 
LOOP,urn:ioos:station:wmo:lopl1:1,2014-11-01T09:03:00Z,28.8850,-90.0250,10.0,18.0,0.0,21.7,'11111222,11111222,11111222' 
LOOP,urn:ioos:station:wmo:lopl1:1,2014-11-01T09:18:00Z,28.8850,-90.0250,10.0,17.7,0.0,20.9,'11111222,11111222,11111222' 
LOOP,urn:ioos:station:wmo:lopl1:1,2014-11-01T09:38:00Z,28.8850,-90.0250,10.0,15.4,9.0,19.7,'11111222,11111222,11111222' 
LOOP,urn:ioos:station:wmo:lopl1:1,2014-11-01T09:53:00Z,28.8850,-90.0250,10.0,14.1,4.0,17.9,'11111222,11111222,11111222' 
LOOP,urn:ioos:station:wmo:lopl1:1,2014-11-01T10:08:00Z,28.8850,-90.0250,10.0,13.6,12.0,17.1,'11111222,11111222,11111222' 
LOOP,urn:ioos:station:wmo:lopl1:1,2014-11-01T10:23:00Z,28.8850,-90.0250,10.0,12.6,14.0,16.3,'11111222,11111222,11111222' 
LOOP,urn:ioos:station:wmo:lopl1:1,2014-11-01T10:38:00Z,28.8850,-90.0250,10.0,12.6,15.0,17.2,'11111222,11111222,11111222' 
LOOP,urn:ioos:station:wmo:lopl1:1,2014-11-01T10:53:00Z,28.8850,-90.0250,10.0,14.2,6.0,17.4,'11111222,11111222,11111222' 
LOOP,urn:ioos:station:wmo:lopl1:1,2014-11-01T11:08:00Z,28.8850,-90.0250,10.0,15.1,11.0,18.7,'11111222,11111222,11111222' 
LOOP,urn:ioos:station:wmo:lopl1:1,2014-11-01T11:23:00Z,28.8850,-90.0250,10.0,14.5,6.0,18.1,'11111222,11111222,11111222' 
LOOP,urn:ioos:station:wmo:lopl1:1,2014-11-01T11:38:00Z,28.8850,-90.0250,10.0,14.7,10.0,19.2,'11111222,11111222,11111222' 
LOOP,urn:ioos:station:wmo:lopl1:1,2014-11-01T11:53:00Z,28.8850,-90.0250,10.0,13.6,23.0,17.3,'11111222,11111222,11111222' 
LOOP,urn:ioos:station:wmo:lopl1:1,2014-11-01T12:08:00Z,28.8850,-90.0250,10.0,14.0,14.0,17.7,'11111222,11111222,11111222' 
LOOP,urn:ioos:station:wmo:lopl1:1,2014-11-01T12:28:00Z,28.8850,-90.0250,10.0,12.9,14.0,16.3,'11111222,11111222,11111222' 
LOOP,urn:ioos:station:wmo:lopl1:1,2014-11-01T12:43:00Z,28.8850,-90.0250,10.0,12.1,3.0,15.8,'11111222,11111222,11111222' 
LOOP,urn:ioos:station:wmo:lopl1:1,2014-11-01T12:58:00Z,28.8850,-90.0250,10.0,12.7,11.0,16.4,'11111222,11111222,11111222' 
LOOP,urn:ioos:station:wmo:lopl1:1,2014-11-01T13:13:00Z,28.8850,-90.0250,10.0,13.0,13.0,16.2,'11111222,11111222,11111222' 
LOOP,urn:ioos:station:wmo:lopl1:1,2014-11-01T13:28:00Z,28.8850,-90.0250,10.0,12.6,20.0,16.8,'11111222,11111222,11111222' 
LOOP,urn:ioos:station:wmo:lopl1:1,2014-11-01T13:43:00Z,28.8850,-90.0250,10.0,12.3,16.0,17.6,'11111222,11111222,11111222' 
LOOP,urn:ioos:station:wmo:lopl1:1,2014-11-01T13:58:00Z,28.8850,-90.0250,10.0,11.6,6.0,15.9,'11111222,11111222,11111222' 
LOOP,urn:ioos:station:wmo:lopl1:1,2014-11-01T14:13:00Z,28.8850,-90.0250,10.0,12.2,18.0,15.7,'11111222,11111222,11111222' 
LOOP,urn:ioos:station:wmo:lopl1:1,2014-11-01T14:28:00Z,28.8850,-90.0250,10.0,11.4,19.0,14.2,'11111222,11111222,11111222' 
LOOP,urn:ioos:station:wmo:lopl1:1,2014-11-01T14:43:00Z,28.8850,-90.0250,10.0,10.7,16.0,14.4,'11111222,11111222,11111222' 
LOOP,urn:ioos:station:wmo:lopl1:1,2014-11-01T14:58:00Z,28.8850,-90.0250,10.0,11.3,21.0,14.4,'11111222,11111222,11111222' 
LOOP,urn:ioos:station:wmo:lopl1:1,2014-11-01T15:13:00Z,28.8850,-90.0250,10.0,10.7,0.0,13.6,'11111222,11111222,11111222' 
LOOP,urn:ioos:station:wmo:lopl1:1,2014-11-01T15:28:00Z,28.8850,-90.0250,10.0,10.3,19.0,13.2,'11111222,11111222,11111222' 
LOOP,urn:ioos:station:wmo:lopl1:1,2014-11-01T15:43:00Z,28.8850,-90.0250,10.0,9.6,15.0,12.6,'11111222,11111222,11111222' 
LOOP,urn:ioos:station:wmo:lopl1:1,2014-11-01T15:58:00Z,28.8850,-90.0250,10.0,10.8,11.0,13.4,'11111222,11111222,11111222' 
LOOP,urn:ioos:station:wmo:lopl1:1,2014-11-01T16:13:00Z,28.8850,-90.0250,10.0,9.3,16.0,12.0,'11111222,11111222,11111222' 
LOOP,urn:ioos:station:wmo:lopl1:1,2014-11-01T16:28:00Z,28.8850,-90.0250,10.0,10.7,1.0,13.7,'11111222,11111222,11111222' 
LOOP,urn:ioos:station:wmo:lopl1:1,2014-11-01T16:43:00Z,28.8850,-90.0250,10.0,10.6,5.0,14.0,'11111222,11111222,11111222' 
LOOP,urn:ioos:station:wmo:lopl1:1,2014-11-01T16:58:00Z,28.8850,-90.0250,10.0,10.5,2.0,13.7,'11111222,11111222,11111222' 
LOOP,urn:ioos:station:wmo:lopl1:1,2014-11-01T17:13:00Z,28.8850,-90.0250,10.0,10.4,5.0,14.1,'11111222,11111222,11111222' 
LOOP,urn:ioos:station:wmo:lopl1:1,2014-11-01T17:28:00Z,28.8850,-90.0250,10.0,10.3,3.0,13.1,'11111222,11111222,11111222' 
LOOP,urn:ioos:station:wmo:lopl1:1,2014-11-01T17:43:00Z,28.8850,-90.0250,10.0,10.2,12.0,13.0,'11111222,11111222,11111222' 
LOOP,urn:ioos:station:wmo:lopl1:1,2014-11-01T17:58:00Z,28.8850,-90.0250,10.0,9.0,359.0,12.1,'11111222,11111222,11111222' 
LOOP,urn:ioos:station:wmo:lopl1:1,2014-11-01T18:13:00Z,28.8850,-90.0250,10.0,10.0,7.0,12.5,'11111222,11111222,11111222' 
LOOP,urn:ioos:station:wmo:lopl1:1,2014-11-01T18:28:00Z,28.8850,-90.0250,10.0,10.3,359.0,12.6,'11111222,11111222,11111222' 
LOOP,urn:ioos:station:wmo:lopl1:1,2014-11-01T18:43:00Z,28.8850,-90.0250,10.0,10.1,7.0,12.3,'11111222,11111222,11111222' 
LOOP,urn:ioos:station:wmo:lopl1:1,2014-11-01T18:58:00Z,28.8850,-90.0250,10.0,9.3,0.0,11.2,'11111222,11111222,11111222' 
LOOP,urn:ioos:station:wmo:lopl1:1,2014-11-01T19:13:00Z,28.8850,-90.0250,10.0,7.8,5.0,10.8,'11111222,11111222,11111222' 
LOOP,urn:ioos:station:wmo:lopl1:1,2014-11-01T19:28:00Z,28.8850,-90.0250,10.0,8.3,352.0,11.5,'11111222,11111222,11111222' 
LOOP,urn:ioos:station:wmo:lopl1:1,2014-11-01T19:43:00Z,28.8850,-90.0250,10.0,8.4,0.0,10.4,'11111222,11111222,11111222' 
LOOP,urn:ioos:station:wmo:lopl1:1,2014-11-01T19:58:00Z,28.8850,-90.0250,10.0,7.8,356.0,10.7,'11111222,11111222,11111222' 
LOOP,urn:ioos:station:wmo:lopl1:1,2014-11-01T20:13:00Z,28.8850,-90.0250,10.0,7.1,350.0,9.8,'11111222,11111222,11111222' 
LOOP,urn:ioos:station:wmo:lopl1:1,2014-11-01T20:28:00Z,28.8850,-90.0250,10.0,7.6,343.0,10.2,'11111222,11111222,11111222' 
LOOP,urn:ioos:station:wmo:lopl1:1,2014-11-01T20:43:00Z,28.8850,-90.0250,10.0,7.2,344.0,10.4,'11111222,11111222,11111222' 
LOOP,urn:ioos:station:wmo:lopl1:1,2014-11-01T21:03:00Z,28.8850,-90.0250,10.0,7.1,345.0,10.3,'11111222,11111222,11111222' 
LOOP,urn:ioos:station:wmo:lopl1:1,2014-11-01T21:18:00Z,28.8850,-90.0250,10.0,7.0,348.0,9.9,'11111222,11111222,11111222' 
LOOP,urn:ioos:station:wmo:lopl1:1,2014-11-01T21:33:00Z,28.8850,-90.0250,10.0,7.6,354.0,10.0,'11111222,11111222,11111222' 
LOOP,urn:ioos:station:wmo:lopl1:1,2014-11-01T21:48:00Z,28.8850,-90.0250,10.0,7.8,1.0,10.9,'11111222,11111222,11111222' 
LOOP,urn:ioos:station:wmo:lopl1:1,2014-11-01T22:03:00Z,28.8850,-90.0250,10.0,7.4,359.0,10.6,'11111222,11111222,11111222' 
LOOP,urn:ioos:station:wmo:lopl1:1,2014-11-01T22:18:00Z,28.8850,-90.0250,10.0,6.4,347.0,9.8,'11111222,11111222,11111222' 
LOOP,urn:ioos:station:wmo:lopl1:1,2014-11-01T22:33:00Z,28.8850,-90.0250,10.0,7.1,344.0,9.4,'11111222,11111222,11111222' 
LOOP,urn:ioos:station:wmo:lopl1:1,2014-11-01T22:48:00Z,28.8850,-90.0250,10.0,6.0,344.0,8.0,'11111222,11111222,11111222' 
LOOP,urn:ioos:station:wmo:lopl1:1,2014-11-01T23:03:00Z,28.8850,-90.0250,10.0,7.4,346.0,9.9,'11111222,11111222,11111222' 
LOOP,urn:ioos:station:wmo:lopl1:1,2014-11-01T23:18:00Z,28.8850,-90.0250,10.0,7.5,339.0,9.8,'11111222,11111222,11111222' 
LOOP,urn:ioos:station:wmo:lopl1:1,2014-11-01T23:33:00Z,28.8850,-90.0250,10.0,8.8,355.0,12.1,'11111222,11111222,11111222' 
LOOP,urn:ioos:station:wmo:lopl1:1,2014-11-01T23:48:00Z,28.8850,-90.0250,10.0,7.6,349.0,12.7,'11111222,11111222,11111222' 
LOOP,urn:ioos:station:wmo:lopl1:1,2014-11-02T00:03:00Z,28.8850,-90.0250,10.0,9.8,354.0,12.6,'11111222,11111222,11111222' 
LOOP,urn:ioos:station:wmo:lopl1:1,2014-11-02T00:18:00Z,28.8850,-90.0250,10.0,9.4,357.0,11.7,'11111222,11111222,11111222' 
LOOP,urn:ioos:station:wmo:lopl1:1,2014-11-02T00:33:00Z,28.8850,-90.0250,10.0,8.1,351.0,10.9,'11111222,11111222,11111222' 
LOOP,urn:ioos:station:wmo:lopl1:1,2014-11-02T00:48:00Z,28.8850,-90.0250,10.0,9.4,346.0,13.2,'11111222,11111222,11111222' 
LOOP,urn:ioos:station:wmo:lopl1:1,2014-11-02T01:03:00Z,28.8850,-90.0250,10.0,10.9,357.0,13.6,'11111222,11111222,11111222' 
LOOP,urn:ioos:station:wmo:lopl1:1,2014-11-02T01:18:00Z,28.8850,-90.0250,10.0,10.3,355.0,13.6,'11111222,11111222,11111222' 
LOOP,urn:ioos:station:wmo:lopl1:1,2014-11-02T01:33:00Z,28.8850,-90.0250,10.0,10.5,356.0,12.8,'11111222,11111222,11111222' 
LOOP,urn:ioos:station:wmo:lopl1:1,2014-11-02T01:48:00Z,28.8850,-90.0250,10.0,9.6,0.0,12.6,'11111222,11111222,11111222' 
LOOP,urn:ioos:station:wmo:lopl1:1,2014-11-02T02:03:00Z,28.8850,-90.0250,10.0,10.3,2.0,13.7,'11111222,11111222,11111222' 
LOOP,urn:ioos:station:wmo:lopl1:1,2014-11-02T02:18:00Z,28.8850,-90.0250,10.0,10.0,354.0,14.1,'11111222,11111222,11111222' 
LOOP,urn:ioos:station:wmo:lopl1:1,2014-11-02T02:33:00Z,28.8850,-90.0250,10.0,10.3,5.0,12.3,'11111222,11111222,11111222' 
LOOP,urn:ioos:station:wmo:lopl1:1,2014-11-02T02:48:00Z,28.8850,-90.0250,10.0,11.1,8.0,13.2,'11111222,11111222,11111222' 
LOOP,urn:ioos:station:wmo:lopl1:1,2014-11-02T03:03:00Z,28.8850,-90.0250,10.0,11.5,11.0,14.3,'11111222,11111222,11111222' 
LOOP,urn:ioos:station:wmo:lopl1:1,2014-11-02T03:18:00Z,28.8850,-90.0250,10.0,11.4,11.0,14.1,'11111222,11111222,11111222' 
LOOP,urn:ioos:station:wmo:lopl1:1,2014-11-02T03:33:00Z,28.8850,-90.0250,10.0,11.6,4.0,14.1,'11111222,11111222,11111222' 
LOOP,urn:ioos:station:wmo:lopl1:1,2014-11-02T03:48:00Z,28.8850,-90.0250,10.0,10.9,21.0,13.7,'11111222,11111222,11111222' 
LOOP,urn:ioos:station:wmo:lopl1:1,2014-11-02T04:03:00Z,28.8850,-90.0250,10.0,11.6,14.0,14.7,'11111222,11111222,11111222' 
LOOP,urn:ioos:station:wmo:lopl1:1,2014-11-02T04:18:00Z,28.8850,-90.0250,10.0,10.6,17.0,14.1,'11111222,11111222,11111222' 
LOOP,urn:ioos:station:wmo:lopl1:1,2014-11-02T04:33:00Z,28.8850,-90.0250,10.0,10.5,18.0,12.8,'11111222,11111222,11111222' 
LOOP,urn:ioos:station:wmo:lopl1:1,2014-11-02T04:48:00Z,28.8850,-90.0250,10.0,10.3,10.0,14.3,'11111222,11111222,11111222' 
LOOP,urn:ioos:station:wmo:lopl1:1,2014-11-02T05:03:00Z,28.8850,-90.0250,10.0,10.8,28.0,14.1,'11111222,11111222,11111222' 
LOOP,urn:ioos:station:wmo:lopl1:1,2014-11-02T05:18:00Z,28.8850,-90.0250,10.0,8.8,21.0,12.5,'11111222,11111222,11111222' 
LOOP,urn:ioos:station:wmo:lopl1:1,2014-11-02T05:33:00Z,28.8850,-90.0250,10.0,9.0,23.0,11.5,'11111222,11111222,11111222' 
LOOP,urn:ioos:station:wmo:lopl1:1,2014-11-02T05:48:00Z,28.8850,-90.0250,10.0,8.6,33.0,11.7,'11111222,11111222,11111222' 
LOOP,urn:ioos:station:wmo:lopl1:1,2014-11-02T06:03:00Z,28.8850,-90.0250,10.0,9.4,13.0,12.3,'11111222,11111222,11111222' 
LOOP,urn:ioos:station:wmo:lopl1:1,2014-11-02T06:18:00Z,28.8850,-90.0250,10.0,9.5,20.0,12.7,'11111222,11111222,11111222' 
LOOP,urn:ioos:station:wmo:lopl1:1,2014-11-02T06:33:00Z,28.8850,-90.0250,10.0,8.3,29.0,13.4,'11111222,11111222,11111222' 
LOOP,urn:ioos:station:wmo:lopl1:1,2014-11-02T06:48:00Z,28.8850,-90.0250,10.0,9.2,26.0,12.1,'11111222,11111222,11111222' 
LOOP,urn:ioos:station:wmo:lopl1:1,2014-11-02T08:03:00Z,28.8850,-90.0250,10.0,8.6,53.0,11.8,'11111222,11111222,11111222' 
LOOP,urn:ioos:station:wmo:lopl1:1,2014-11-02T08:18:00Z,28.8850,-90.0250,10.0,8.8,28.0,12.0,'11111222,11111222,11111222' 
LOOP,urn:ioos:station:wmo:lopl1:1,2014-11-02T08:38:00Z,28.8850,-90.0250,10.0,7.7,44.0,11.0,'11111222,11111222,11111222' 
LOOP,urn:ioos:station:wmo:lopl1:1,2014-11-02T08:53:00Z,28.8850,-90.0250,10.0,8.0,46.0,12.2,'11111222,11111222,11111222' 
LOOP,urn:ioos:station:wmo:lopl1:1,2014-11-02T09:08:00Z,28.8850,-90.0250,10.0,7.7,63.0,10.5,'11111222,11111222,11111222' 
LOOP,urn:ioos:station:wmo:lopl1:1,2014-11-02T09:23:00Z,28.8850,-90.0250,10.0,8.4,68.0,10.9,'11111222,11111222,11111222' 
LOOP,urn:ioos:station:wmo:lopl1:1,2014-11-02T09:38:00Z,28.8850,-90.0250,10.0,8.1,60.0,11.3,'11111222,11111222,11111222' 
LOOP,urn:ioos:station:wmo:lopl1:1,2014-11-02T09:53:00Z,28.8850,-90.0250,10.0,7.8,46.0,10.9,'11111222,11111222,11111222' 
LOOP,urn:ioos:station:wmo:lopl1:1,2014-11-02T10:08:00Z,28.8850,-90.0250,10.0,8.0,75.0,10.9,'11111222,11111222,11111222' 
LOOP,urn:ioos:station:wmo:lopl1:1,2014-11-02T10:23:00Z,28.8850,-90.0250,10.0,7.6,55.0,10.1,'11111222,11111222,11111222' 
LOOP,urn:ioos:station:wmo:lopl1:1,2014-11-02T10:38:00Z,28.8850,-90.0250,10.0,8.0,48.0,10.5,'11111222,11111222,11111222' 
LOOP,urn:ioos:station:wmo:lopl1:1,2014-11-02T10:53:00Z,28.8850,-90.0250,10.0,7.7,58.0,11.1,'11111222,11111222,11111222' 
LOOP,urn:ioos:station:wmo:lopl1:1,2014-11-02T11:08:00Z,28.8850,-90.0250,10.0,7.3,47.0,11.4,'11111222,11111222,11111222' 
LOOP,urn:ioos:station:wmo:lopl1:1,2014-11-02T11:23:00Z,28.8850,-90.0250,10.0,6.8,63.0,8.8,'11111222,11111222,11111222' 
LOOP,urn:ioos:station:wmo:lopl1:1,2014-11-02T11:38:00Z,28.8850,-90.0250,10.0,6.8,74.0,8.2,'11111222,11111222,11111222' 
LOOP,urn:ioos:station:wmo:lopl1:1,2014-11-02T11:53:00Z,28.8850,-90.0250,10.0,6.8,75.0,10.2,'11111222,11111222,11111222' 
LOOP,urn:ioos:station:wmo:lopl1:1,2014-11-02T12:08:00Z,28.8850,-90.0250,10.0,5.6,78.0,7.7,'11111222,11111222,11111222' 
LOOP,urn:ioos:station:wmo:lopl1:1,2014-11-02T12:23:00Z,28.8850,-90.0250,10.0,5.6,58.0,7.7,'11111222,11111222,11111222' 
LOOP,urn:ioos:station:wmo:lopl1:1,2014-11-02T12:38:00Z,28.8850,-90.0250,10.0,5.5,71.0,7.0,'11111222,11111222,11111222' 
LOOP,urn:ioos:station:wmo:lopl1:1,2014-11-02T12:53:00Z,28.8850,-90.0250,10.0,4.7,50.0,6.7,'11111222,11111222,11111222' 
LOOP,urn:ioos:station:wmo:lopl1:1,2014-11-02T13:08:00Z,28.8850,-90.0250,10.0,5.6,70.0,7.5,'11111222,11111222,11111222' 
LOOP,urn:ioos:station:wmo:lopl1:1,2014-11-02T13:23:00Z,28.8850,-90.0250,10.0,5.6,74.0,7.9,'11111222,11111222,11111222' 
LOOP,urn:ioos:station:wmo:lopl1:1,2014-11-02T13:43:00Z,28.8850,-90.0250,10.0,5.7,85.0,7.5,'11111222,11111222,11111222' 
LOOP,urn:ioos:station:wmo:lopl1:1,2014-11-02T13:58:00Z,28.8850,-90.0250,10.0,5.5,85.0,7.5,'11111222,11111222,11111222' 
LOOP,urn:ioos:station:wmo:lopl1:1,2014-11-02T14:13:00Z,28.8850,-90.0250,10.0,5.4,71.0,7.1,'11111222,11111222,11111222' 
LOOP,urn:ioos:station:wmo:lopl1:1,2014-11-02T14:28:00Z,28.8850,-90.0250,10.0,4.8,82.0,6.2,'11111222,11111222,11111222' 
LOOP,urn:ioos:station:wmo:lopl1:1,2014-11-02T14:43:00Z,28.8850,-90.0250,10.0,4.8,75.0,7.5,'11111222,11111222,11111222' 
LOOP,urn:ioos:station:wmo:lopl1:1,2014-11-02T14:58:00Z,28.8850,-90.0250,10.0,5.4,73.0,7.0,'11111222,11111222,11111222' 
LOOP,urn:ioos:station:wmo:lopl1:1,2014-11-02T15:13:00Z,28.8850,-90.0250,10.0,4.7,66.0,6.8,'11111222,11111222,11111222' 
LOOP,urn:ioos:station:wmo:lopl1:1,2014-11-02T15:28:00Z,28.8850,-90.0250,10.0,4.6,86.0,5.9,'11111222,11111222,11111222' 
LOOP,urn:ioos:station:wmo:lopl1:1,2014-11-02T15:43:00Z,28.8850,-90.0250,10.0,4.4,57.0,5.9,'11111222,11111222,11111222' 
LOOP,urn:ioos:station:wmo:lopl1:1,2014-11-02T15:58:00Z,28.8850,-90.0250,10.0,3.7,78.0,5.3,'11111222,11111222,11111222' 
LOOP,urn:ioos:station:wmo:lopl1:1,2014-11-02T16:13:00Z,28.8850,-90.0250,10.0,4.0,76.0,5.9,'11111222,11111222,11111222' 
LOOP,urn:ioos:station:wmo:lopl1:1,2014-11-02T16:28:00Z,28.8850,-90.0250,10.0,4.2,60.0,6.2,'11111222,11111222,11111222' 
LOOP,urn:ioos:station:wmo:lopl1:1,2014-11-02T16:43:00Z,28.8850,-90.0250,10.0,3.7,61.0,5.2,'11111222,11111222,11111222' 
LOOP,urn:ioos:station:wmo:lopl1:1,2014-11-02T16:58:00Z,28.8850,-90.0250,10.0,4.0,64.0,5.2,'11111222,11111222,11111222' 
LOOP,urn:ioos:station:wmo:lopl1:1,2014-11-02T17:13:00Z,28.8850,-90.0250,10.0,4.8,74.0,6.0,'11111222,11111222,11111222' 
LOOP,urn:ioos:station:wmo:lopl1:1,2014-11-02T17:28:00Z,28.8850,-90.0250,10.0,5.0,66.0,6.5,'11111222,11111222,11111222' 
LOOP,urn:ioos:station:wmo:lopl1:1,2014-11-02T17:43:00Z,28.8850,-90.0250,10.0,4.8,76.0,6.5,'11111222,11111222,11111222' 
LOOP,urn:ioos:station:wmo:lopl1:1,2014-11-02T17:58:00Z,28.8850,-90.0250,10.0,3.9,62.0,5.7,'11111222,11111222,11111222' 
LOOP,urn:ioos:station:wmo:lopl1:1,2014-11-02T18:13:00Z,28.8850,-90.0250,10.0,4.5,62.0,6.6,'11111222,11111222,11111222' 
LOOP,urn:ioos:station:wmo:lopl1:1,2014-11-02T18:28:00Z,28.8850,-90.0250,10.0,4.3,71.0,6.7,'11111222,11111222,11111222' 
LOOP,urn:ioos:station:wmo:lopl1:1,2014-11-02T18:43:00Z,28.8850,-90.0250,10.0,4.6,53.0,7.1,'11111222,11111222,11111222' 
LOOP,urn:ioos:station:wmo:lopl1:1,2014-11-02T18:58:00Z,28.8850,-90.0250,10.0,6.0,61.0,8.5,'11111222,11111222,11111222' 
LOOP,urn:ioos:station:wmo:lopl1:1,2014-11-02T19:13:00Z,28.8850,-90.0250,10.0,4.2,56.0,5.7,'11111222,11111222,11111222' 
LOOP,urn:ioos:station:wmo:lopl1:1,2014-11-02T19:28:00Z,28.8850,-90.0250,10.0,4.2,65.0,6.0,'11111222,11111222,11111222' 
LOOP,urn:ioos:station:wmo:lopl1:1,2014-11-02T19:43:00Z,28.8850,-90.0250,10.0,3.4,62.0,4.7,'11111222,11111222,11111222' 
LOOP,urn:ioos:station:wmo:lopl1:1,2014-11-02T19:58:00Z,28.8850,-90.0250,10.0,4.2,71.0,6.3,'11111222,11111222,11111222' 
LOOP,urn:ioos:station:wmo:lopl1:1,2014-11-02T20:13:00Z,28.8850,-90.0250,10.0,4.6,47.0,6.4,'11111222,11111222,11111222' 
LOOP,urn:ioos:station:wmo:lopl1:1,2014-11-02T20:28:00Z,28.8850,-90.0250,10.0,5.2,68.0,6.7,'11111222,11111222,11111222' 
LOOP,urn:ioos:station:wmo:lopl1:1,2014-11-02T20:43:00Z,28.8850,-90.0250,10.0,4.7,83.0,6.2,'11111222,11111222,11111222' 
LOOP,urn:ioos:station:wmo:lopl1:1,2014-11-02T20:58:00Z,28.8850,-90.0250,10.0,4.9,88.0,6.1,'11111222,11111222,11111222' 
LOOP,urn:ioos:station:wmo:lopl1:1,2014-11-02T21:13:00Z,28.8850,-90.0250,10.0,4.4,78.0,6.6,'11111222,11111222,11111222' 
LOOP,urn:ioos:station:wmo:lopl1:1,2014-11-02T21:28:00Z,28.8850,-90.0250,10.0,4.5,82.0,6.1,'11111222,11111222,11111222' 
LOOP,urn:ioos:station:wmo:lopl1:1,2014-11-02T21:43:00Z,28.8850,-90.0250,10.0,4.3,75.0,5.8,'11111222,11111222,11111222' 
LOOP,urn:ioos:station:wmo:lopl1:1,2014-11-02T21:58:00Z,28.8850,-90.0250,10.0,3.5,72.0,5.1,'11111222,11111222,11111222' 
LOOP,urn:ioos:station:wmo:lopl1:1,2014-11-02T22:13:00Z,28.8850,-90.0250,10.0,3.9,59.0,5.1,'11111222,11111222,11111222' 
LOOP,urn:ioos:station:wmo:lopl1:1,2014-11-02T22:33:00Z,28.8850,-90.0250,10.0,4.0,66.0,5.9,'11111222,11111222,11111222' 
LOOP,urn:ioos:station:wmo:lopl1:1,2014-11-02T22:48:00Z,28.8850,-90.0250,10.0,3.9,64.0,5.4,'11111222,11111222,11111222' 
LOOP,urn:ioos:station:wmo:lopl1:1,2014-11-02T23:03:00Z,28.8850,-90.0250,10.0,4.5,83.0,6.2,'11111222,11111222,11111222' 
LOOP,urn:ioos:station:wmo:lopl1:1,2014-11-02T23:18:00Z,28.8850,-90.0250,10.0,4.0,85.0,5.6,'11111222,11111222,11111222' 
LOOP,urn:ioos:station:wmo:lopl1:1,2014-11-02T23:33:00Z,28.8850,-90.0250,10.0,4.6,67.0,6.1,'11111222,11111222,11111222' 
LOOP,urn:ioos:station:wmo:lopl1:1,2014-11-02T23:48:00Z,28.8850,-90.0250,10.0,4.1,62.0,6.2,'11111222,11111222,11111222' 
LOOP,urn:ioos:station:wmo:lopl1:1,2014-11-03T00:03:00Z,28.8850,-90.0250,10.0,4.4,58.0,6.4,'11111222,11111222,11111222' 
LOOP,urn:ioos:station:wmo:lopl1:1,2014-11-03T00:18:00Z,28.8850,-90.0250,10.0,4.1,47.0,6.2,'11111222,11111222,11111222' 
LOOP,urn:ioos:station:wmo:lopl1:1,2014-11-03T00:33:00Z,28.8850,-90.0250,10.0,4.2,29.0,5.8,'11111222,11111222,11111222' 
LOOP,urn:ioos:station:wmo:lopl1:1,2014-11-03T00:48:00Z,28.8850,-90.0250,10.0,4.2,36.0,6.1,'11111222,11111222,11111222' 
LOOP,urn:ioos:station:wmo:lopl1:1,2014-11-03T01:03:00Z,28.8850,-90.0250,10.0,4.4,66.0,6.2,'11111222,11111222,11111222' 
LOOP,urn:ioos:station:wmo:lopl1:1,2014-11-03T01:18:00Z,28.8850,-90.0250,10.0,3.9,55.0,5.5,'11111222,11111222,11111222' 
LOOP,urn:ioos:station:wmo:lopl1:1,2014-11-03T01:33:00Z,28.8850,-90.0250,10.0,4.1,43.0,6.0,'11111222,11111222,11111222' 
LOOP,urn:ioos:station:wmo:lopl1:1,2014-11-03T01:48:00Z,28.8850,-90.0250,10.0,3.5,41.0,5.5,'11111222,11111222,11111222' 
LOOP,urn:ioos:station:wmo:lopl1:1,2014-11-03T02:03:00Z,28.8850,-90.0250,10.0,3.5,28.0,3.6,'11111222,11111222,11111222' 
LOOP,urn:ioos:station:wmo:lopl1:1,2014-11-03T02:18:00Z,28.8850,-90.0250,10.0,3.8,27.0,5.4,'11111222,11111222,11111222' 
LOOP,urn:ioos:station:wmo:lopl1:1,2014-11-03T02:33:00Z,28.8850,-90.0250,10.0,3.0,74.0,4.2,'11111222,11111222,11111222' 